Terug naar catalogus

COSMOS 1275 DEB

ActiefPO
NORAD 17639·DEBRIS·🇷🇺 Russia

Gelanceerd Jun 4, 1981 vanaf Plesetsk Cosmodrome

Loading…

Volgende Passages (komende 24 uur)

TLE

VersSource: Space-Track

Epoch: Sep 14, 2026, 04:16 UTC

1 17639U 81053LJ  26257.17822083  .00000918  00000-0  10620-2 0  9995
2 17639  82.9958  52.3656 0153747 287.2137 196.3101 13.63355448 43092

Volg COSMOS 1275 DEB in realtime met AllMySat

Download on the App Store